[[{"header":{"parameterUnit":"m.s-1","parameterCategory":1,"la1":30.2991,"la2":30.254,"lo1":-89.0895,"lo2":-89.0444,"dx":0.0017,"dy":0.0017,"nx":28,"ny":28,"refTime":"2022-11-03T21:00:00:Z","depth":0,"parameterNumber":2,"parameterNumberName":"U-component_of_WINDS"},"data":[0,0,0,0,0,0,0,0,0,0,0,0,0,0,0,0,0,0,0,0,0,0,0,0,0,0,0,0,0,0,0,0,0,0,0,0,0,0,0,0,0,0,0,0,0,0,0,0,0,0,0,0,0,0,0,0,0,0,-6.2546,-6.2547,0,-6.2619,-6.262,-6.262,-6.258,-6.2578,-6.2576,-6.2575,-6.2646,-6.2649,-6.2653,0,0,0,0,0,0,0,0,0,0,0,0,0,-6.2371,-6.2374,-6.2546,-6.2547,-6.2548,-6.2619,-6.262,-6.2621,-6.2581,-6.2578,-6.2576,-6.2574,-6.2645,-6.2649,-6.2653,0,0,0,0,0,0,0,0,0,0,0,0,0,-6.2446,-6.2376,-6.2546,-6.2537,-6.2537,-6.2619,-6.262,-6.2621,-6.2581,-6.2578,-6.2575,-6.2573,-6.2643,-6.2649,-6.2654,-6.2748,0,0,-6.2671,-6.2674,0,0,0,0,0,0,0,0,-6.2441,-6.2452,-6.2537,-6.2538,-6.2538,-6.2588,-6.2584,-6.2664,-6.2582,-6.2564,-6.2575,-6.2571,-6.2629,-6.2635,-6.2655,-6.2752,-6.2755,-6.2672,-6.2675,-6.2678,-6.2679,0,0,0,0,0,0,0,-6.2436,-6.2449,-6.2575,-6.2538,-6.2539,-6.2528,-6.2536,-6.2599,-6.2612,-6.2566,-6.2563,-6.2572,-6.2628,-6.265,-6.2657,-6.2756,-6.2672,-6.2677,-6.268,-6.2682,-6.2933,-6.2937,0,0,0,0,0,0,-6.2432,-6.2445,-6.2572,-6.2577,-6.2481,-6.2534,-6.2542,-6.2574,-6.2611,-6.2614,-6.2575,-6.257,-6.2642,-6.265,-6.2659,-6.2771,-6.2678,-6.2683,-6.2686,-6.293,-6.2934,-6.2938,0,0,0,0,0,0,-6.2429,-6.2444,-6.257,-6.251,-6.2525,-6.254,-6.2577,-6.2577,-6.2599,-6.2618,-6.262,-6.2595,-6.264,-6.2651,-6.2727,-6.2773,-6.2685,-6.269,-6.2926,-6.2931,-6.2936,-6.2996,0,0,0,0,0,0,-6.2424,-6.2443,-6.2479,-6.2511,-6.2529,-6.2636,-6.258,-6.2581,-6.2609,-6.2604,-6.2637,-6.264,-6.2638,-6.2719,-6.2732,-6.2779,-6.2695,-6.2922,-6.2929,-6.2934,-6.299,-6.3002,-6.3013,0,0,0,0,0,-6.2418,-6.2492,-6.2481,-6.2496,-6.2574,-6.2639,-6.2649,-6.2646,-6.2613,-6.2649,-6.2662,-6.2639,-6.2767,-6.2727,-6.2742,-6.2791,-6.2919,-6.2927,-6.2934,-6.2984,-6.3,-6.3013,0,0,0,0,0,0,-6.2462,-6.2496,-6.2484,-6.2571,-6.2603,-6.2632,-6.2677,-6.2663,-6.2703,-6.2696,-6.2691,-6.2699,-6.2777,-6.2792,-6.2747,-6.2884,-6.2838,-6.2848,-6.2871,-6.2885,-6.2897,-6.289,-6.2699,0,0,0,0,0,-6.2483,-6.2534,-6.256,-6.2635,-6.2652,-6.2662,-6.269,-6.2686,-6.2718,-6.273,-6.2748,-6.278,-6.2827,-6.2857,-6.2902,-6.2993,-6.2999,-6.3035,-6.3046,-6.3056,-6.3064,-6.3113,-6.3128,-6.2962,-6.2962,-6.2962,0,0,-6.2525,-6.255,-6.2581,-6.2645,-6.2668,-6.272,-6.2673,-6.273,-6.2768,-6.2739,-6.2811,-6.2826,-6.286,-6.2944,-6.2982,-6.2959,-6.3112,-6.3065,-6.3073,-6.3075,-6.3122,-6.3138,-6.3151,-6.2967,-6.2966,-6.2965,0,0,-6.2627,-6.2652,-6.2716,-6.2742,-6.278,-6.2787,-6.2803,-6.2835,-6.2844,-6.2917,-6.2897,-6.2942,-6.3024,-6.3049,-6.3072,-6.3188,-6.3168,-6.3203,-6.3262,-6.331,-6.3323,-6.3334,-6.3374,-6.3388,-6.3212,-6.3212,-6.3213,0,-6.2673,-6.2751,-6.2751,-6.281,-6.2838,-6.2817,-6.2881,-6.2906,-6.2956,-6.2975,-6.295,-6.3053,-6.3074,-6.3163,-6.3192,-6.3213,-6.3229,-6.3197,-6.3321,-6.3333,-6.3343,-6.3381,-6.3396,-6.3216,-6.3216,-6.3215,-6.3215,0,-6.2806,-6.2861,-6.2908,-6.2959,-6.2993,-6.3054,-6.3062,-6.3097,-6.3091,-6.3101,-6.3176,-6.3202,-6.3251,-6.3273,-6.3267,-6.3362,-6.3347,-6.3322,-6.3274,-6.3363,-6.3398,-6.3412,-6.3222,-6.322,-6.3219,-6.3218,0,0,-6.2933,-6.2986,-6.3003,-6.3025,-6.3067,-6.3109,-6.3171,-6.322,-6.3249,-6.3286,-6.3336,-6.3407,-6.3385,-6.3412,-6.3409,-6.3452,-6.354,-6.3421,-6.3422,-6.344,-6.3644,-6.366,-6.3677,-6.3529,-6.3532,-6.3534,-6.364,0,-6.3036,-6.3144,-6.3147,-6.3244,-6.3294,-6.3277,-6.3331,-6.3362,-6.3374,-6.3418,-6.3431,-6.348,-6.3448,-6.3464,-6.3506,-6.352,-6.358,-6.3513,-6.3573,-6.3575,-6.3561,-6.3695,-6.3712,-6.3811,-6.3654,-6.3657,-6.3658,0,-6.3169,-6.3211,-6.3315,-6.335,-6.3372,-6.3419,-6.3466,-6.3509,-6.3544,-6.355,-6.3582,-6.3574,-6.3636,-6.359,-6.3675,-6.3629,-6.3655,-6.3666,-6.367,-6.3672,-6.3619,-6.3698,-6.3842,-6.3856,-6.368,-6.3679,-6.3677,0,-6.3249,-6.3332,-6.3404,-6.3425,-6.3469,-6.3503,-6.3523,-6.3556,-6.3586,-6.3627,-6.3646,-6.3694,-6.3719,-6.3756,-6.3761,-6.3728,-6.3846,-6.3801,-6.3851,-6.3851,-6.3873,-6.3871,-6.402,-6.3896,-6.3896,-6.3895,-6.3895,0,-6.3361,-6.3424,-6.3441,-6.3485,-6.3555,-6.3559,-6.3629,-6.3646,-6.3676,-6.3723,-6.3712,-6.3756,-6.3762,-6.3807,-6.3812,-6.3881,-6.3893,-6.3898,-6.3898,-6.3897,-6.3896,-6.3911,-6.3903,-6.3899,-6.3898,-6.3898,-6.3897,0,-6.3459,-6.3474,-6.3551,-6.3588,-6.3599,-6.3649,-6.368,-6.3722,-6.3735,-6.3794,-6.3808,-6.3828,-6.3881,-6.3891,-6.3954,-6.3957,-6.4038,-6.4033,-6.4026,-6.4024,-6.4073,-6.4067,-6.4234,-6.4255,-6.412,-6.4121,-6.4122,0,-6.3528,-6.3577,-6.362,-6.3651,-6.3673,-6.3723,-6.3755,-6.3762,-6.3795,-6.3841,-6.3877,-6.393,-6.3971,-6.4058,-6.4076,-6.4125,-6.4118,-6.4174,-6.4125,-6.4123,-6.4116,-6.4111,-6.4115,-6.4181,-6.4183,-6.4184,-6.4185,0,-6.3648,-6.3653,-6.3699,-6.3749,-6.3787,-6.3826,-6.3863,-6.3889,-6.3901,-6.3939,-6.3994,-6.4027,-6.4092,-6.4144,-6.4193,-6.4213,-6.42,-6.4201,-6.4215,-6.4212,-6.4205,-6.4207,-6.4048,-6.4196,-6.4195,-6.4194,-6.4193,-6.4193,-6.3731,-6.3774,-6.3811,-6.3863,-6.3893,-6.3928,-6.3969,-6.3989,-6.4035,-6.4089,-6.4091,-6.4151,-6.4187,-6.4251,-6.4275,-6.4321,-6.4303,-6.4324,-6.4328,-6.4332,-6.4335,-6.4202,-6.433,-6.433,-6.433,-6.433,-6.4329,0,-6.3848,-6.3872,-6.392,-6.3973,-6.4015,-6.4003,-6.4044,-6.4079,-6.4132,-6.4168,-6.421,-6.4274,-6.4325,-6.435,-6.44,-6.4433,-6.4428,-6.4445,-6.4441,-6.4445,-6.435,-6.4331,-6.4448,-6.4448,-6.4448,-6.4448,-6.4448,-6.4448,-6.3913,-6.3984,-6.3994,-6.4079,-6.4103,-6.4162,-6.4187,-6.4219,-6.4248,-6.4319,-6.4362,-6.4379,-6.441,-6.4463,-6.451,-6.4516,-6.4533,-6.4552,-6.4555,-6.4464,-6.4452,-6.4441,-6.4423,-6.4557,-6.4557,-6.4647,-6.4648,-6.4648]},{"header":{"parameterUnit":"m.s-1","parameterCategory":1,"la1":30.2991,"la2":30.254,"lo1":-89.0895,"lo2":-89.0444,"dx":0.0017,"dy":0.0017,"nx":28,"ny":28,"refTime":"2022-11-03T21:00:00:Z","depth":0,"parameterNumber":3,"parameterNumberName":"V-component_of_WINDS"},"data":[0,0,0,0,0,0,0,0,0,0,0,0,0,0,0,0,0,0,0,0,0,0,0,0,0,0,0,0,0,0,0,0,0,0,0,0,0,0,0,0,0,0,0,0,0,0,0,0,0,0,0,0,0,0,0,0,0,0,2.3292,2.3292,0,2.3303,2.3304,2.3304,2.3324,2.3324,2.3325,2.3325,2.3334,2.3334,2.3334,0,0,0,0,0,0,0,0,0,0,0,0,0,2.3284,2.3284,2.3292,2.3292,2.3292,2.3303,2.3304,2.3304,2.3324,2.3324,2.3325,2.3325,2.3334,2.3334,2.3334,0,0,0,0,0,0,0,0,0,0,0,0,0,2.3291,2.3284,2.3292,2.3303,2.3305,2.3303,2.3304,2.3304,2.3324,2.3324,2.3325,2.3326,2.3334,2.3334,2.3334,2.3321,0,0,2.3333,2.3333,0,0,0,0,0,0,0,0,2.3291,2.3291,2.3302,2.3303,2.3304,2.3313,2.3304,2.3309,2.3324,2.3316,2.3325,2.3326,2.3326,2.3327,2.3328,2.3321,2.3322,2.3333,2.3333,2.3333,2.3333,0,0,0,0,0,0,0,2.329,2.3291,2.3296,2.3302,2.3303,2.3307,2.3309,2.3305,2.3318,2.3317,2.3319,2.332,2.3327,2.3328,2.3328,2.3322,2.3333,2.3333,2.3333,2.3333,2.3307,2.3306,0,0,0,0,0,0,2.3288,2.329,2.3296,2.3297,2.3299,2.3307,2.3309,2.3309,2.3318,2.332,2.3319,2.3321,2.3328,2.3328,2.3328,2.3315,2.3333,2.3333,2.3333,2.3307,2.3307,2.3306,0,0,0,0,0,0,2.3288,2.3289,2.3295,2.3294,2.3295,2.3307,2.3307,2.3309,2.331,2.332,2.3322,2.3318,2.3328,2.3329,2.3323,2.3316,2.3333,2.3333,2.3308,2.3307,2.3306,2.3287,0,0,0,0,0,0,2.3288,2.3288,2.3284,2.3294,2.3295,2.329,2.3307,2.3309,2.331,2.3312,2.3319,2.3321,2.3329,2.3323,2.3323,2.3316,2.3333,2.3309,2.3308,2.3307,2.3288,2.3286,2.3283,0,0,0,0,0,2.3287,2.3277,2.3284,2.3284,2.329,2.329,2.3291,2.3301,2.3309,2.3305,2.3311,2.332,2.3316,2.3323,2.3322,2.3315,2.3309,2.3308,2.3307,2.329,2.3286,2.3283,0,0,0,0,0,0,2.3265,2.3279,2.3286,2.3279,2.3283,2.3293,2.3288,2.3297,2.3298,2.33,2.3312,2.3313,2.3306,2.331,2.3317,2.3303,2.3314,2.3313,2.3301,2.3298,2.3296,2.3295,2.3332,0,0,0,0,0,2.326,2.3259,2.3271,2.3263,2.3265,2.3276,2.3277,2.3284,2.3289,2.3291,2.3297,2.33,2.33,2.3299,2.3299,2.3289,2.3291,2.3284,2.3281,2.3279,2.3278,2.3273,2.327,2.3302,2.3302,2.3302,0,0,2.3248,2.3255,2.3254,2.3259,2.3263,2.3262,2.3278,2.3275,2.3275,2.329,2.3286,2.329,2.3295,2.3287,2.3284,2.329,2.3269,2.3277,2.3275,2.3275,2.3272,2.3269,2.3266,2.3301,2.3301,2.3301,0,0,2.3226,2.3231,2.3226,2.3231,2.3238,2.3245,2.3244,2.3253,2.3257,2.3253,2.3265,2.3264,2.3262,2.3266,2.3267,2.3247,2.3256,2.3247,2.3233,2.3229,2.3227,2.3225,2.3218,2.3216,2.3245,2.3245,2.3245,0,2.321,2.321,2.3222,2.322,2.3222,2.3237,2.3232,2.3235,2.3241,2.3242,2.3249,2.3248,2.3252,2.3246,2.3242,2.3242,2.3241,2.3246,2.3226,2.3224,2.3222,2.3217,2.3214,2.3244,2.3244,2.3244,2.3245,0,2.319,2.319,2.3185,2.3192,2.3194,2.319,2.3201,2.3201,2.3209,2.3215,2.3211,2.3217,2.3219,2.3218,2.3224,2.3213,2.3216,2.3224,2.3236,2.3218,2.3213,2.3211,2.3243,2.3243,2.3243,2.3244,0,0,2.3155,2.317,2.3168,2.3172,2.3181,2.318,2.3177,2.318,2.318,2.3184,2.3182,2.3181,2.3189,2.319,2.3197,2.3194,2.3179,2.3202,2.3203,2.3198,2.3167,2.3161,2.3159,2.3184,2.3184,2.3184,2.3167,0,2.3135,2.3132,2.3144,2.3137,2.3137,2.3152,2.3149,2.3154,2.316,2.3161,2.3167,2.3167,2.3177,2.3178,2.3175,2.3181,2.3173,2.3183,2.3182,2.3182,2.3182,2.3156,2.315,2.3134,2.3165,2.3164,2.3164,0,2.3112,2.3117,2.3111,2.3121,2.3122,2.3119,2.3124,2.3124,2.313,2.3134,2.3137,2.3146,2.3143,2.3154,2.315,2.3157,2.3157,2.316,2.316,2.3161,2.3173,2.3157,2.3129,2.3126,2.3161,2.3161,2.3161,0,2.3088,2.3092,2.309,2.3092,2.3104,2.3102,2.3107,2.3114,2.3115,2.3118,2.3119,2.3122,2.3123,2.3124,2.3134,2.3141,2.3129,2.314,2.3133,2.3133,2.3131,2.3131,2.3103,2.313,2.313,2.313,2.313,0,2.3066,2.3062,2.3079,2.3078,2.3074,2.3086,2.3082,2.3088,2.3093,2.3093,2.3105,2.3104,2.3116,2.3116,2.3123,2.3119,2.312,2.3123,2.3125,2.3123,2.3122,2.3124,2.3125,2.3129,2.3129,2.3129,2.3129,0,2.3039,2.305,2.3048,2.306,2.3063,2.306,2.3069,2.3068,2.3075,2.3074,2.3075,2.3086,2.3087,2.3096,2.3099,2.3104,2.3097,2.3101,2.3096,2.3097,2.309,2.3091,2.3063,2.306,2.3087,2.3087,2.3087,0,2.3024,2.3022,2.3034,2.3035,2.304,2.3041,2.3043,2.3055,2.3057,2.3064,2.3062,2.3064,2.3066,2.3067,2.3075,2.3077,2.3081,2.3071,2.3082,2.3079,2.3082,2.3083,2.3083,2.3069,2.3069,2.3068,2.3068,0,2.2998,2.3004,2.3007,2.3012,2.3015,2.3019,2.3024,2.3024,2.3037,2.3038,2.304,2.3042,2.3045,2.3047,2.3051,2.3055,2.3064,2.3065,2.3064,2.3061,2.3059,2.3061,2.3091,2.3066,2.3066,2.3066,2.3066,2.3066,2.2977,2.2976,2.2985,2.2988,2.2993,2.2998,2.2998,2.3006,2.3008,2.3012,2.3019,2.302,2.3026,2.3032,2.3036,2.3036,2.3041,2.3039,2.3039,2.3038,2.3037,2.3058,2.3037,2.3037,2.3037,2.3037,2.3037,0,2.2952,2.2958,2.2961,2.2969,2.2971,2.298,2.2987,2.2988,2.2989,2.2995,2.2997,2.3,2.3002,2.301,2.3013,2.3012,2.3016,2.3012,2.3013,2.3014,2.3032,2.3033,2.3009,2.3009,2.3009,2.3009,2.3009,2.3009,2.2939,2.2938,2.2945,2.2947,2.2953,2.2956,2.2959,2.2963,2.2968,2.297,2.2973,2.2978,2.2985,2.2989,2.2991,2.2993,2.2994,2.2989,2.2993,2.301,2.3012,2.3015,2.3016,2.2989,2.2989,2.2975,2.2975,2.2975]}]]